Terminal Aerodrome Forecast
Issued by NWS

Home | Current Version | Previous Version | Text Only | Print | Product List | Glossary On
Versions: 1 2 3 4 5 6 7 8 9 10 11 12 13 14 15 16 17 18 19 20 21 22 23 24 25 26 27 28 29 30
000
FTUS46 KEKA 261351 AAB
TAFACV
TAF AMD
KACV 261351Z 2614/2712 09003KT P6SM SCT020 BKN050
      TEMPO 2614/2617 BKN020
     FM261800 19010G17KT P6SM -SHRA BKN040
     FM262100 20012G24KT 4SM SHRA BR SCT015 OVC025
     FM270200 VRB06G12KT 6SM -SHRA BKN025 OVC035
     FM270700 12005KT P6SM -SHRA BKN025 OVC050=

USA.gov is the U.S. government's official web portal to all federal, state and local government web resources and services.